This is the latest recevied weather packets stored in our database for station/object KF0EZB. If no packets are shown the sender has not sent any weather packets the latest 10 day(s).
| Time | Temp. | Humidity | Pressure | Rain* | Wind** | Luminosity | Snow |
|---|---|---|---|---|---|---|---|
| 1778083828 | 7.22° C | 97% | 1020 hPa | 0 mm | - | 292 W/m² | - |
| 1778083526 | 6.67° C | 98% | 1020 hPa | 0 mm | - | 365 W/m² | - |
| 1778083223 | 6.67° C | 98% | 1020.1 hPa | 0 mm | - | 317 W/m² | - |
| 1778082921 | 6.67° C | 98% | 1020.1 hPa | 0 mm | - | 271 W/m² | - |
| 1778081818 | 6.11° C | 99% | 1020.1 hPa | 0 mm | - | 160 W/m² | - |
| 1778081515 | 6.67° C | 99% | 1020.2 hPa | 0 mm | - | 196 W/m² | - |
| 1778081212 | 6.11° C | 99% | 1020.1 hPa | 0 mm | - | 208 W/m² | - |
| 1778080910 | 5.56° C | 99% | 1020.1 hPa | 0 mm | - | 160 W/m² | - |
| 1778080609 | 5.56° C | 99% | 1020 hPa | 0 mm | - | 133 W/m² | - |
| 1778080304 | 6.11° C | 99% | 1020 hPa | 0 mm | - | 114 W/m² | - |
| 1778080001 | 6.11° C | 99% | 1020.1 hPa | 0 mm | - | 97 W/m² | - |
| 1778079699 | 5.56° C | 99% | 1020 hPa | 1.78 mm | - | 86 W/m² | - |
| 1778079395 | 5.56° C | 99% | 1020.1 hPa | 1.78 mm | - | 89 W/m² | - |
| 1778079092 | 6.11° C | 99% | 1020.2 hPa | 0 mm | - | 89 W/m² | - |
| 1778078790 | 5.56° C | 99% | 1020 hPa | 0 mm | - | 90 W/m² | - |
| 1778078486 | 6.11° C | 99% | 1019.9 hPa | 0 mm | - | 78 W/m² | - |
| 1778078184 | 5.56° C | 99% | 1019.8 hPa | 0 mm | - | 80 W/m² | - |
| 1778077882 | 5.56° C | 99% | 1020.1 hPa | 0 mm | - | 59 W/m² | - |
| 1778077580 | 5.56° C | 99% | 1020 hPa | 0 mm | - | 55 W/m² | - |
| 1778077278 | 5.56° C | 99% | 1019.9 hPa | 0 mm | - | 58 W/m² | - |
| 1778076975 | 5.56° C | 99% | 1019.9 hPa | 0 mm | - | 56 W/m² | - |
| 1778076673 | 5.56° C | 99% | 1019.9 hPa | 0 mm | - | 69 W/m² | - |
| 1778076370 | 5.56° C | 99% | 1019.8 hPa | 0 mm | - | 74 W/m² | - |
| 1778076068 | 5.56° C | 99% | 1019.7 hPa | 0 mm | - | 72 W/m² | - |
| 1778075764 | 5.56° C | 99% | 1019.6 hPa | 1.27 mm | - | 64 W/m² | - |
* Rain latest hour (hover to see other rain measurements)
** Current wind speed in m/s (hover to see current wind gust speed)